Time,TemperatureF,DewpointF,PressureIn,WindDirection,WindDirectionDegrees,WindSpeedMPH,WindSpeedGustMPH,Humidity,HourlyPrecipIn,Conditions,Clouds,dailyrainin,SoftwareType,DateUTC
2013-10-17 00:12:00,49.1,34.5,29.70,SW,225,0.0,-999.0,57,-99.99,,,0.00,Acu-Link.com,2013-10-17 05:12:00,
2013-10-17 00:27:00,49.1,34.5,29.70,NNE,22,1.1,-999.0,57,-99.99,,,0.00,Acu-Link.com,2013-10-17 05:27:00,
2013-10-17 00:42:00,49.1,34.5,29.70,East,90,2.2,-999.0,57,-99.99,,,0.00,Acu-Link.com,2013-10-17 05:42:00,
2013-10-17 00:57:00,49.1,34.5,29.70,South,180,2.2,-999.0,57,-99.99,,,0.00,Acu-Link.com,2013-10-17 05:57:00,
2013-10-17 01:13:00,49.1,34.5,29.69,SE,135,1.7,-999.0,57,-99.99,,,0.00,Acu-Link.com,2013-10-17 06:13:00,
2013-10-17 01:29:00,49.1,34.5,29.70,SSE,157,1.7,-999.0,57,-99.99,,,0.00,Acu-Link.com,2013-10-17 06:29:00,
2013-10-17 01:44:00,49.1,34.5,29.70,ESE,112,2.2,-999.0,57,-99.99,,,0.00,Acu-Link.com,2013-10-17 06:44:00,
2013-10-17 02:00:00,49.1,34.5,29.70,SSE,157,1.7,-999.0,57,-99.99,,,0.00,Acu-Link.com,2013-10-17 07:00:00,
2013-10-17 02:15:00,49.1,34.5,29.69,SSE,157,1.1,-999.0,57,-99.99,,,0.00,Acu-Link.com,2013-10-17 07:15:00,
2013-10-17 02:30:00,49.1,34.5,29.69,West,270,0.0,-999.0,57,-99.99,,,0.00,Acu-Link.com,2013-10-17 07:30:00,
2013-10-17 02:47:00,49.1,34.5,29.69,SE,135,1.7,-999.0,57,-99.99,,,0.00,Acu-Link.com,2013-10-17 07:47:00,
2013-10-17 03:02:00,49.1,34.5,29.69,ESE,112,1.7,-999.0,57,-99.99,,,0.00,Acu-Link.com,2013-10-17 08:02:00,
2013-10-17 03:17:00,49.1,34.5,29.69,SSE,157,2.2,-999.0,57,-99.99,,,0.00,Acu-Link.com,2013-10-17 08:17:00,
2013-10-17 03:32:00,49.1,34.5,29.69,SE,135,0.0,-999.0,57,-99.99,,,0.00,Acu-Link.com,2013-10-17 08:32:00,
2013-10-17 03:48:00,49.1,34.5,29.69,SE,135,1.1,-999.0,57,-99.99,,,0.00,Acu-Link.com,2013-10-17 08:48:00,
2013-10-17 04:03:00,49.1,34.5,29.69,SE,135,1.7,-999.0,57,-99.99,,,0.00,Acu-Link.com,2013-10-17 09:03:00,
2013-10-17 04:18:00,49.1,34.5,29.69,NW,315,1.1,-999.0,57,-99.99,,,0.00,Acu-Link.com,2013-10-17 09:18:00,
2013-10-17 04:34:00,49.1,34.5,29.67,WSW,247,1.7,-999.0,57,-99.99,,,0.00,Acu-Link.com,2013-10-17 09:34:00,
2013-10-17 04:49:00,49.1,34.5,29.66,SSE,157,2.2,-999.0,57,-99.99,,,0.00,Acu-Link.com,2013-10-17 09:49:00,
2013-10-17 05:04:00,49.1,34.5,29.66,SSE,157,2.2,-999.0,57,-99.99,,,0.00,Acu-Link.com,2013-10-17 10:04:00,
2013-10-17 05:19:00,49.1,34.5,29.66,SSE,157,2.2,-999.0,57,-99.99,,,0.00,Acu-Link.com,2013-10-17 10:19:00,
2013-10-17 05:34:00,49.1,34.5,29.65,ESE,112,1.1,-999.0,57,-99.99,,,0.00,Acu-Link.com,2013-10-17 10:34:00,
2013-10-17 05:49:00,49.1,34.5,29.65,NE,45,2.2,-999.0,57,-99.99,,,0.00,Acu-Link.com,2013-10-17 10:49:00,
2013-10-17 06:04:00,49.1,34.5,29.66,East,90,0.0,-999.0,57,-99.99,,,0.00,Acu-Link.com,2013-10-17 11:04:00,
2013-10-17 06:20:00,49.1,34.5,29.66,SE,135,0.0,-999.0,57,-99.99,,,0.00,Acu-Link.com,2013-10-17 11:20:00,
2013-10-17 06:35:00,49.1,34.5,29.65,NE,45,1.1,-999.0,57,-99.99,,,0.00,Acu-Link.com,2013-10-17 11:35:00,
2013-10-17 06:50:00,49.1,34.5,29.66,ESE,112,1.7,-999.0,57,-99.99,,,0.00,Acu-Link.com,2013-10-17 11:50:00,
2013-10-17 07:05:00,49.1,34.5,29.66,East,90,0.0,-999.0,57,-99.99,,,0.00,Acu-Link.com,2013-10-17 12:05:00,
2013-10-17 07:21:00,49.1,34.5,29.65,NE,45,0.0,-999.0,57,-99.99,,,0.00,Acu-Link.com,2013-10-17 12:21:00,
2013-10-17 07:36:00,49.1,34.5,29.65,ESE,112,0.0,-999.0,57,-99.99,,,0.00,Acu-Link.com,2013-10-17 12:36:00,
2013-10-17 07:51:00,49.1,34.5,29.65,ESE,112,0.0,-999.0,57,-99.99,,,0.00,Acu-Link.com,2013-10-17 12:51:00,
2013-10-17 08:06:00,49.1,34.5,29.64,SE,135,0.0,-999.0,57,-99.99,,,0.00,Acu-Link.com,2013-10-17 13:06:00,
2013-10-17 08:21:00,49.1,34.5,29.65,SSW,202,0.0,-999.0,57,-99.99,,,0.00,Acu-Link.com,2013-10-17 13:21:00,
2013-10-17 08:38:00,49.1,34.5,29.65,South,180,1.1,-999.0,57,-99.99,,,0.00,Acu-Link.com,2013-10-17 13:38:00,
2013-10-17 08:53:00,49.1,34.5,29.65,West,270,0.0,-999.0,57,-99.99,,,0.00,Acu-Link.com,2013-10-17 13:53:00,
2013-10-17 09:08:00,49.1,34.5,29.66,SE,135,2.2,-999.0,57,-99.99,,,0.00,Acu-Link.com,2013-10-17 14:08:00,
2013-10-17 09:24:00,49.1,34.5,29.67,WNW,292,1.1,-999.0,57,-99.99,,,0.00,Acu-Link.com,2013-10-17 14:24:00,
2013-10-17 09:39:00,49.1,34.5,29.66,North,0,0.0,-999.0,57,-99.99,,,0.00,Acu-Link.com,2013-10-17 14:39:00,
2013-10-17 09:54:00,49.1,34.5,29.67,WSW,247,2.2,-999.0,57,-99.99,,,0.00,Acu-Link.com,2013-10-17 14:54:00,
2013-10-17 10:10:00,49.1,34.5,29.67,SSE,157,0.0,-999.0,57,-99.99,,,0.00,Acu-Link.com,2013-10-17 15:10:00,
2013-10-17 10:25:00,49.1,34.5,29.67,NW,315,1.1,-999.0,57,-99.99,,,0.00,Acu-Link.com,2013-10-17 15:25:00,
2013-10-17 10:40:00,49.1,34.5,29.67,NNE,22,0.0,-999.0,57,-99.99,,,0.00,Acu-Link.com,2013-10-17 15:40:00,
2013-10-17 10:55:00,49.1,34.5,29.67,North,0,0.0,-999.0,57,-99.99,,,0.00,Acu-Link.com,2013-10-17 15:55:00,
2013-10-17 11:10:00,49.1,34.5,29.67,WNW,292,0.0,-999.0,57,-99.99,,,0.00,Acu-Link.com,2013-10-17 16:10:00,
2013-10-17 11:25:00,49.1,34.5,29.67,North,0,1.1,-999.0,57,-99.99,,,0.00,Acu-Link.com,2013-10-17 16:25:00,
2013-10-17 11:40:00,49.1,34.5,29.67,NNW,337,3.2,-999.0,57,-99.99,,,0.00,Acu-Link.com,2013-10-17 16:40:00,
2013-10-17 11:55:00,49.1,34.5,29.67,NNW,337,2.2,-999.0,57,-99.99,,,0.00,Acu-Link.com,2013-10-17 16:55:00,
2013-10-17 12:11:00,49.1,34.5,29.66,NE,45,1.1,-999.0,57,-99.99,,,0.00,Acu-Link.com,2013-10-17 17:11:00,
2013-10-17 12:26:00,49.1,34.5,29.66,NNW,337,2.2,-999.0,57,-99.99,,,0.00,Acu-Link.com,2013-10-17 17:26:00,
2013-10-17 12:41:00,49.1,34.5,29.67,NNE,22,1.7,-999.0,57,-99.99,,,0.00,Acu-Link.com,2013-10-17 17:41:00,
2013-10-17 12:56:00,49.1,34.5,29.67,SE,135,2.2,-999.0,57,-99.99,,,0.00,Acu-Link.com,2013-10-17 17:56:00,
2013-10-17 13:12:00,49.1,34.5,29.67,NNW,337,2.7,-999.0,57,-99.99,,,0.00,Acu-Link.com,2013-10-17 18:12:00,
2013-10-17 13:27:00,49.1,34.5,29.67,ESE,112,1.1,-999.0,57,-99.99,,,0.00,Acu-Link.com,2013-10-17 18:27:00,
2013-10-17 13:42:00,49.1,34.5,29.67,West,270,3.7,-999.0,57,-99.99,,,0.00,Acu-Link.com,2013-10-17 18:42:00,
2013-10-17 13:57:00,49.1,34.5,29.66,West,270,3.2,-999.0,57,-99.99,,,0.00,Acu-Link.com,2013-10-17 18:57:00,
2013-10-17 14:12:00,49.1,34.5,29.66,West,270,4.2,-999.0,57,-99.99,,,0.00,Acu-Link.com,2013-10-17 19:12:00,
2013-10-17 14:28:00,49.1,34.5,29.67,NNE,22,2.2,-999.0,57,-99.99,,,0.00,Acu-Link.com,2013-10-17 19:28:00,
2013-10-17 14:43:00,49.1,34.5,29.66,North,0,2.2,-999.0,57,-99.99,,,0.00,Acu-Link.com,2013-10-17 19:43:00,
2013-10-17 14:58:00,49.1,34.5,29.66,WNW,292,3.2,-999.0,57,-99.99,,,0.00,Acu-Link.com,2013-10-17 19:58:00,
2013-10-17 15:13:00,49.1,34.5,29.66,NNW,337,4.7,-999.0,57,-99.99,,,0.00,Acu-Link.com,2013-10-17 20:13:00,
2013-10-17 15:28:00,49.1,34.5,29.67,WNW,292,1.7,-999.0,57,-99.99,,,0.00,Acu-Link.com,2013-10-17 20:28:00,
2013-10-17 15:44:00,49.1,34.5,29.67,WNW,292,3.2,-999.0,57,-99.99,,,0.00,Acu-Link.com,2013-10-17 20:44:00,
2013-10-17 15:59:00,49.1,34.5,29.67,NE,45,3.2,-999.0,57,-99.99,,,0.00,Acu-Link.com,2013-10-17 20:59:00,
2013-10-17 16:14:00,49.1,34.5,29.68,ENE,67,3.2,-999.0,57,-99.99,,,0.01,Acu-Link.com,2013-10-17 21:14:00,
2013-10-17 16:29:00,49.1,34.5,29.68,NNW,337,4.7,-999.0,57,-99.99,,,0.01,Acu-Link.com,2013-10-17 21:29:00,
2013-10-17 16:44:00,49.1,34.5,29.69,NW,315,5.8,-999.0,57,-99.99,,,0.02,Acu-Link.com,2013-10-17 21:44:00,
2013-10-17 16:59:00,49.1,34.5,29.68,ENE,67,2.7,-999.0,57,-99.99,,,0.02,Acu-Link.com,2013-10-17 21:59:00,
2013-10-17 17:15:00,49.1,34.5,29.69,North,0,5.8,-999.0,57,-99.99,,,0.03,Acu-Link.com,2013-10-17 22:15:00,
2013-10-17 17:30:00,49.1,34.5,29.69,WNW,292,4.2,-999.0,57,-99.99,,,0.05,Acu-Link.com,2013-10-17 22:30:00,
2013-10-17 17:45:00,49.1,34.5,29.70,North,0,5.3,-999.0,57,-99.99,,,0.08,Acu-Link.com,2013-10-17 22:45:00,
2013-10-17 18:00:00,49.1,34.5,29.70,WNW,292,5.3,-999.0,57,-99.99,,,0.08,Acu-Link.com,2013-10-17 23:00:00,
2013-10-17 18:15:00,49.1,34.5,29.71,North,0,4.7,-999.0,57,-99.99,,,0.09,Acu-Link.com,2013-10-17 23:15:00,
2013-10-17 18:31:00,49.1,34.5,29.72,North,0,4.2,-999.0,57,-99.99,,,0.10,Acu-Link.com,2013-10-17 23:31:00,
2013-10-17 18:46:00,49.1,34.5,29.72,North,0,4.7,-999.0,57,-99.99,,,0.13,Acu-Link.com,2013-10-17 23:46:00,
2013-10-17 19:01:00,49.1,34.5,29.73,WNW,292,5.3,-999.0,57,-99.99,,,0.14,Acu-Link.com,2013-10-18 00:01:00,
2013-10-17 19:16:00,49.1,34.5,29.73,WNW,292,2.7,-999.0,57,-99.99,,,0.14,Acu-Link.com,2013-10-18 00:16:00,
2013-10-17 19:31:00,49.1,34.5,29.73,WNW,292,5.8,-999.0,57,-99.99,,,0.15,Acu-Link.com,2013-10-18 00:31:00,
2013-10-17 19:47:00,49.1,34.5,29.74,NW,315,4.7,-999.0,57,-99.99,,,0.16,Acu-Link.com,2013-10-18 00:47:00,
2013-10-17 20:02:00,49.1,34.5,29.74,West,270,3.2,-999.0,57,-99.99,,,0.17,Acu-Link.com,2013-10-18 01:02:00,
2013-10-17 20:17:00,49.1,34.5,29.74,NNW,337,4.2,-999.0,57,-99.99,,,0.18,Acu-Link.com,2013-10-18 01:17:00,
2013-10-17 20:32:00,49.1,34.5,29.74,West,270,5.3,-999.0,57,-99.99,,,0.18,Acu-Link.com,2013-10-18 01:32:00,
2013-10-17 20:47:00,49.1,34.5,29.74,NW,315,3.7,-999.0,57,-99.99,,,0.19,Acu-Link.com,2013-10-18 01:47:00,
2013-10-17 21:02:00,49.1,34.5,29.75,NNW,337,4.2,-999.0,57,-99.99,,,0.19,Acu-Link.com,2013-10-18 02:02:00,
2013-10-17 21:18:00,49.1,34.5,29.75,NNW,337,4.7,-999.0,57,-99.99,,,0.20,Acu-Link.com,2013-10-18 02:18:00,
2013-10-17 21:33:00,49.1,34.5,29.75,WSW,247,3.7,-999.0,57,-99.99,,,0.20,Acu-Link.com,2013-10-18 02:33:00,
2013-10-17 21:48:00,49.1,34.5,29.76,NW,315,3.7,-999.0,57,-99.99,,,0.20,Acu-Link.com,2013-10-18 02:48:00,
2013-10-17 22:03:00,49.1,34.5,29.77,WNW,292,2.7,-999.0,57,-99.99,,,0.21,Acu-Link.com,2013-10-18 03:03:00,
2013-10-17 22:19:00,49.1,34.5,29.77,NW,315,3.2,-999.0,57,-99.99,,,0.21,Acu-Link.com,2013-10-18 03:19:00,
2013-10-17 22:34:00,49.1,34.5,29.76,NNE,22,2.2,-999.0,57,-99.99,,,0.21,Acu-Link.com,2013-10-18 03:34:00,
2013-10-17 22:49:00,49.1,34.5,29.76,WNW,292,3.2,-999.0,57,-99.99,,,0.22,Acu-Link.com,2013-10-18 03:49:00,
2013-10-17 23:04:00,49.1,34.5,29.77,NNW,337,1.1,-999.0,57,-99.99,,,0.22,Acu-Link.com,2013-10-18 04:04:00,
2013-10-17 23:19:00,49.1,34.5,29.77,WNW,292,2.7,-999.0,57,-99.99,,,0.22,Acu-Link.com,2013-10-18 04:19:00,
2013-10-17 23:34:00,49.1,34.5,29.77,WNW,292,2.2,-999.0,57,-99.99,,,0.22,Acu-Link.com,2013-10-18 04:34:00,
2013-10-17 23:49:00,49.1,34.5,29.77,West,270,3.2,-999.0,57,-99.99,,,0.22,Acu-Link.com,2013-10-18 04:49:00,